TimeCST,TemperatureF,Dew PointF,Humidity,Sea Level PressureIn,VisibilityMPH,Wind Direction,Wind SpeedMPH,Gust SpeedMPH,PrecipitationIn,Events,Conditions,WindDirDegrees,DateUTC
12:53 AM,37.0,34.0,89,30.31,-9999.0,Calm,Calm,-,N/A,,Clear,0,2013-01-17 06:53:00
1:53 AM,37.0,30.9,79,30.32,-9999.0,Calm,Calm,-,N/A,,Clear,0,2013-01-17 07:53:00
2:53 AM,37.0,30.9,79,30.32,-9999.0,Calm,Calm,-,N/A,,Clear,0,2013-01-17 08:53:00
3:53 AM,37.9,30.0,73,30.33,-9999.0,West,5.8,-,N/A,,Clear,270,2013-01-17 09:53:00
4:53 AM,36.0,30.0,79,30.35,-9999.0,NW,3.5,-,N/A,,Clear,320,2013-01-17 10:53:00
5:53 AM,35.6,30.2,81,30.36,-9999.0,NW,4.6,-,N/A,,Clear,320,2013-01-17 11:53:00
6:53 AM,34.0,28.9,82,30.38,-9999.0,WNW,5.8,-,N/A,,Clear,300,2013-01-17 12:53:00
7:53 AM,36.0,28.9,76,30.39,-9999.0,West,3.5,-,N/A,,Clear,270,2013-01-17 13:53:00
8:53 AM,45.0,33.1,63,30.42,-9999.0,NW,4.6,-,N/A,,Clear,310,2013-01-17 14:53:00
9:53 AM,52.0,27.0,38,30.44,-9999.0,NNW,8.1,-,N/A,,Clear,330,2013-01-17 15:53:00
10:53 AM,57.0,30.9,37,30.44,10.0,NNW,9.2,-,N/A,,Clear,340,2013-01-17 16:53:00
11:53 AM,61.0,28.9,30,30.42,10.0,North,10.4,-,N/A,,Clear,350,2013-01-17 17:53:00
12:53 PM,63.0,28.9,28,30.39,10.0,North,15.0,-,N/A,,Clear,350,2013-01-17 18:53:00
1:53 PM,64.0,32.0,30,30.37,10.0,NNW,16.1,20.7,N/A,,Clear,340,2013-01-17 19:53:00
2:53 PM,64.0,33.1,31,30.37,10.0,North,12.7,19.6,N/A,,Clear,350,2013-01-17 20:53:00
3:53 PM,64.9,34.0,32,30.38,10.0,North,12.7,-,N/A,,Clear,360,2013-01-17 21:53:00
4:53 PM,64.0,35.1,34,30.39,10.0,NNW,9.2,-,N/A,,Clear,340,2013-01-17 22:53:00
5:53 PM,57.0,39.0,51,30.41,10.0,North,5.8,-,N/A,,Clear,350,2013-01-17 23:53:00
6:53 PM,50.0,39.0,66,30.43,10.0,North,6.9,-,N/A,,Clear,10,2013-01-18 00:53:00
7:53 PM,50.0,39.0,66,30.45,10.0,North,4.6,-,N/A,,Clear,350,2013-01-18 01:53:00
8:53 PM,46.9,37.9,71,30.45,10.0,North,3.5,-,N/A,,Clear,360,2013-01-18 02:53:00
9:53 PM,46.0,39.0,76,30.46,10.0,North,4.6,-,N/A,,Clear,350,2013-01-18 03:53:00
10:53 PM,45.0,37.9,76,30.47,10.0,North,3.5,-,N/A,,Clear,350,2013-01-18 04:53:00
11:53 PM,45.0,37.0,74,30.47,-9999.0,North,3.5,-,N/A,,Clear,350,2013-01-18 05:53:00